Quincy, IL

6:23 AM CDT on October 14, 2019 (GMT -0500)
Quincy Regional-Baldwin

Weather History for KUIN - May, 2019

Change the Weather History Date:

Friday, May 24, 2019

  Actual Average Record
Temperature  
Mean Temperature 76 °F 65 °F  
Max Temperature 88 °F 75 °F 94 °F (1921)
Min Temperature 64 °F 55 °F 40 °F (1917)
Degree Days  
Heating Degree Days 0 3  
Month to date heating degree days 147 120  
Since 1 July heating degree days 5796 5550  
Cooling Degree Days 11 3  
Month to date cooling degree days 54 42  
Year to date cooling degree days 64 60  
Growing Degree Days 26 (Base 50)    
Moisture  
Dew Point 66 °F    
Average Humidity 71    
Maximum Humidity 93    
Minimum Humidity 55    
Precipitation  
Precipitation T in 0.15 in 2.24 in (1995)
Month to date precipitation 4.80 3.44  
Year to date precipitation 17.41 12.99  
Sea Level Pressure  
Sea Level Pressure 29.95 in    
Wind  
Wind Speed 10 mph ()    
Max Wind Speed 29 mph    
Max Gust Speed 39 mph    
Visibility 10.0 miles    
Events      
T = Trace of Precipitation, MM = Missing Value Source: Averaged Metar Reports

Daily Weather History Graph

Daily Weather History Graph

Search for Another Location

Airport or City:

Astronomy

May. 24, 2019 Rise Set
Actual Time 5:42 AM CDT 8:21 PM CDT
Civil Twilight 5:11 AM CDT 8:52 PM CDT
Nautical Twilight 4:32 AM CDT 9:31 PM CDT
Astronomical Twilight 3:47 AM CDT 10:16 PM CDT
Moon 12:46 AM CDT (5/24) 10:43 AM CDT (5/24)
Length of Visible Light 15h 41m
Length of Day
14h 38m
Waning Gibbous, 68% of the Moon is Illuminated
May 24
Waning Gibbous
May 26
Last Quarter
Jun 3
New
Jun 10
First Quarter
Jun 17
Full

Hourly Weather History & Observations

Time (CDT) Temp. Heat Index Dew Point Humidity Pressure Visibility Wind Dir Wind Speed Gust Speed Precip Events Conditions
12:54 AM 66.9 °F - 59.0 °F 76% 30.04 in 10.0 mi East 5.8 mph - N/A   Overcast
1:54 AM 66.9 °F - 59.0 °F 76% 30.01 in 10.0 mi East 8.1 mph - N/A   Mostly Cloudy
2:54 AM 68.0 °F - 59.0 °F 73% 30.01 in 10.0 mi ESE 9.2 mph - 0.00 in   Mostly Cloudy
3:54 AM 66.9 °F - 60.1 °F 79% 30.00 in 10.0 mi ESE 8.1 mph - N/A   Clear
4:54 AM 64.9 °F - 61.0 °F 87% 29.99 in 10.0 mi SE 8.1 mph - N/A   Clear
5:54 AM 64.9 °F - 62.1 °F 90% 29.99 in 10.0 mi SE 8.1 mph - N/A   Clear
6:54 AM 68.0 °F - 64.0 °F 87% 29.99 in 10.0 mi SSE 5.8 mph - N/A   Clear
7:54 AM 71.1 °F - 66.9 °F 87% 30.00 in 10.0 mi South 6.9 mph - N/A   Mostly Cloudy
8:54 AM 75.9 °F - 68.0 °F 76% 30.00 in 10.0 mi SSW 11.5 mph - N/A   Scattered Clouds
9:54 AM 79.0 °F - 69.1 °F 72% 29.98 in 10.0 mi SSW 12.7 mph - N/A   Scattered Clouds
10:54 AM 82.0 °F 86.3 °F 71.1 °F 69% 29.98 in 10.0 mi SSW 16.1 mph - N/A   Clear
11:54 AM 82.9 °F 87.0 °F 70.0 °F 65% 29.97 in 10.0 mi SW 20.7 mph 27.6 mph N/A   Scattered Clouds
12:54 PM 78.1 °F - 70.0 °F 76% 29.98 in 10.0 mi WNW 5.8 mph - 0.00 in   Scattered Clouds
1:54 PM 84.0 °F 88.4 °F 70.0 °F 63% 29.91 in 10.0 mi South 18.4 mph 27.6 mph N/A   Clear
2:54 PM 84.0 °F 89.0 °F 71.1 °F 65% 29.91 in 10.0 mi South 15.0 mph - N/A   Partly Cloudy
3:54 PM 84.9 °F 90.7 °F 72.0 °F 65% 29.90 in 10.0 mi SSW 15.0 mph 23.0 mph N/A   Clear
4:54 PM 87.1 °F 92.0 °F 70.0 °F 57% 29.90 in 10.0 mi SSW 18.4 mph 27.6 mph N/A   Mostly Cloudy
5:54 PM 86.0 °F 90.7 °F 70.0 °F 59% 29.88 in 10.0 mi SSW 11.5 mph - N/A   Scattered Clouds
6:54 PM 84.0 °F 87.8 °F 69.1 °F 61% 29.88 in 10.0 mi SSW 11.5 mph - N/A   Clear
7:54 PM 81.0 °F 83.8 °F 68.0 °F 65% 29.87 in 10.0 mi SSW 9.2 mph - N/A   Clear
8:54 PM 80.1 °F 82.3 °F 66.9 °F 64% 29.85 in 10.0 mi South 10.4 mph - N/A   Clear
9:54 PM 79.0 °F - 66.0 °F 64% 29.87 in 10.0 mi SSW 13.8 mph 23.0 mph N/A   Clear
10:54 PM 79.0 °F - 66.0 °F 64% 29.90 in 10.0 mi SSW 15.0 mph - N/A   Partly Cloudy
11:41 PM 75.9 °F - 63.0 °F 64% 29.96 in 10.0 mi West 26.5 mph 39.1 mph 0.00 in   Mostly Cloudy
11:54 PM 73.0 °F - 63.0 °F 71% 29.95 in 10.0 mi West 17.3 mph 32.2 mph 0.00 in   Overcast